Time,TemperatureF,DewpointF,PressureIn,WindDirection,WindDirectionDegrees,WindSpeedMPH,WindSpeedGustMPH,Humidity,HourlyPrecipIn,Conditions,Clouds,dailyrainin,SoftwareType,DateUTC
2013-01-18 00:00:00,14.6,10.1,30.30,WSW,247,1.0,3.0,82,0.00,,,-99.99,WeatherLink 5.7,2013-01-18 06:00:00,
2013-01-18 00:30:00,15.5,10.7,30.29,WSW,247,1.0,3.0,81,0.00,,,-99.99,WeatherLink 5.7,2013-01-18 06:30:00,
2013-01-18 01:00:00,16.1,11.0,30.28,WSW,247,1.0,3.0,80,0.00,,,-99.99,WeatherLink 5.7,2013-01-18 07:00:00,
2013-01-18 01:30:00,16.4,11.6,30.25,WSW,247,1.0,3.0,81,0.00,,,-99.99,WeatherLink 5.7,2013-01-18 07:30:00,
2013-01-18 02:00:00,16.6,12.3,30.24,WSW,247,1.0,3.0,83,0.00,,,-99.99,WeatherLink 5.7,2013-01-18 08:00:00,
2013-01-18 02:30:00,16.8,12.8,30.22,WSW,247,1.0,3.0,84,0.00,,,-99.99,WeatherLink 5.7,2013-01-18 08:30:00,
2013-01-18 03:00:00,16.8,12.8,30.20,WSW,247,1.0,3.0,84,0.00,,,-99.99,WeatherLink 5.7,2013-01-18 09:00:00,
2013-01-18 03:30:00,16.8,12.8,30.17,WSW,247,1.0,4.0,84,0.00,,,-99.99,WeatherLink 5.7,2013-01-18 09:30:00,
2013-01-18 04:00:00,16.8,13.3,30.14,ENE,67,1.0,5.0,86,0.00,,,-99.99,WeatherLink 5.7,2013-01-18 10:00:00,
2013-01-18 04:30:00,17.0,13.5,30.10,ENE,67,2.0,4.0,86,0.00,,,-99.99,WeatherLink 5.7,2013-01-18 10:30:00,
2013-01-18 05:00:00,17.2,13.7,30.08,ENE,67,2.0,5.0,86,0.00,,,-99.99,WeatherLink 5.7,2013-01-18 11:00:00,
2013-01-18 05:30:00,18.0,13.7,30.05,SE,135,3.0,6.0,83,0.00,,,-99.99,WeatherLink 5.7,2013-01-18 11:30:00,
2013-01-18 06:00:00,18.8,14.5,30.01,ESE,112,3.0,7.0,83,0.00,,,-99.99,WeatherLink 5.7,2013-01-18 12:00:00,
2013-01-18 06:30:00,19.3,15.5,29.99,SE,135,4.0,8.0,85,0.00,,,-99.99,WeatherLink 5.7,2013-01-18 12:30:00,
2013-01-18 07:00:00,19.9,15.8,29.96,ESE,112,3.0,7.0,84,0.00,,,-99.99,WeatherLink 5.7,2013-01-18 13:00:00,
2013-01-18 07:30:00,20.3,16.8,29.94,ESE,112,3.0,6.0,86,0.00,,,-99.99,WeatherLink 5.7,2013-01-18 13:30:00,
2013-01-18 08:00:00,20.9,17.6,29.92,East,90,2.0,5.0,87,0.00,,,-99.99,WeatherLink 5.7,2013-01-18 14:00:00,
2013-01-18 08:30:00,21.9,19.2,29.90,ESE,112,3.0,5.0,89,0.00,,,-99.99,WeatherLink 5.7,2013-01-18 14:30:00,
2013-01-18 09:00:00,23.2,20.4,29.87,SE,135,3.0,6.0,89,0.00,,,-99.99,WeatherLink 5.7,2013-01-18 15:00:00,
2013-01-18 09:30:00,24.7,21.9,29.87,ESE,112,3.0,7.0,89,0.00,,,-99.99,WeatherLink 5.7,2013-01-18 15:30:00,
2013-01-18 10:00:00,26.6,23.5,29.86,ESE,112,2.0,5.0,88,0.00,,,-99.99,WeatherLink 5.7,2013-01-18 16:00:00,
2013-01-18 10:30:00,28.2,24.8,29.86,ESE,112,1.0,3.0,87,0.00,,,-99.99,WeatherLink 5.7,2013-01-18 16:30:00,
2013-01-18 11:00:00,29.6,26.2,29.83,ESE,112,1.0,3.0,87,0.00,,,-99.99,WeatherLink 5.7,2013-01-18 17:00:00,
2013-01-18 11:30:00,31.7,28.0,29.81,ESE,112,1.0,4.0,86,0.00,,,-99.99,WeatherLink 5.7,2013-01-18 17:30:00,
2013-01-18 12:00:00,36.0,29.5,29.78,SE,135,2.0,5.0,77,0.00,,,-99.99,WeatherLink 5.7,2013-01-18 18:00:00,
2013-01-18 12:30:00,38.8,30.9,29.76,SE,135,2.0,5.0,73,0.00,,,-99.99,WeatherLink 5.7,2013-01-18 18:30:00,
2013-01-18 13:00:00,39.4,30.8,29.76,South,180,2.0,5.0,71,0.01,,,-99.99,WeatherLink 5.7,2013-01-18 19:00:00,
2013-01-18 13:30:00,40.1,31.4,29.76,South,180,2.0,5.0,71,0.01,,,-99.99,WeatherLink 5.7,2013-01-18 19:30:00,
2013-01-18 14:00:00,40.6,31.2,29.75,South,180,2.0,5.0,69,0.00,,,-99.99,WeatherLink 5.7,2013-01-18 20:00:00,
2013-01-18 14:30:00,40.5,31.1,29.74,SW,225,2.0,5.0,69,0.00,,,-99.99,WeatherLink 5.7,2013-01-18 20:30:00,
2013-01-18 15:00:00,40.3,30.2,29.75,South,180,2.0,5.0,67,0.00,,,-99.99,WeatherLink 5.7,2013-01-18 21:00:00,
2013-01-18 15:30:00,40.1,30.4,29.75,WSW,247,2.0,6.0,68,0.01,,,-99.99,WeatherLink 5.7,2013-01-18 21:30:00,
2013-01-18 17:08:00,37.3,29.4,29.77,SW,225,1.0,4.0,73,0.01,,,-99.99,WeatherLink 5.7,2013-01-18 23:08:00,
2013-01-18 17:38:00,36.6,29.1,29.78,SW,225,0.0,3.0,74,0.00,,,-99.99,WeatherLink 5.7,2013-01-18 23:38:00,
2013-01-18 18:08:00,35.4,28.9,29.79,SW,225,0.0,2.0,77,0.00,,,-99.99,WeatherLink 5.7,2013-01-19 00:08:00,
2013-01-18 18:38:00,34.2,28.4,29.79,SW,225,0.0,3.0,79,0.00,,,-99.99,WeatherLink 5.7,2013-01-19 00:38:00,
2013-01-18 19:08:00,33.1,27.6,29.80,SW,225,0.0,3.0,80,0.00,,,-99.99,WeatherLink 5.7,2013-01-19 01:08:00,
2013-01-18 19:38:00,32.0,27.4,29.80,SW,225,0.0,2.0,83,0.00,,,-99.99,WeatherLink 5.7,2013-01-19 01:38:00,
2013-01-18 20:08:00,31.0,26.4,29.80,SW,225,0.0,2.0,83,0.00,,,-99.99,WeatherLink 5.7,2013-01-19 02:08:00,
2013-01-18 20:38:00,30.1,25.8,29.80,North,-999,0.0,0.0,84,0.00,,,-99.99,WeatherLink 5.7,2013-01-19 02:38:00,
2013-01-18 21:08:00,29.1,25.2,29.79,SW,225,0.0,2.0,85,0.00,,,-99.99,WeatherLink 5.7,2013-01-19 03:08:00,
2013-01-18 21:39:00,28.4,25.0,29.80,SW,225,0.0,2.0,87,0.00,,,-99.99,WeatherLink 5.7,2013-01-19 03:39:00,
2013-01-18 22:08:00,28.6,26.0,29.80,SW,225,0.0,2.0,90,0.00,,,-99.99,WeatherLink 5.7,2013-01-19 04:08:00,
2013-01-18 22:38:00,29.3,26.5,29.80,SW,225,0.0,3.0,89,0.00,,,-99.99,WeatherLink 5.7,2013-01-19 04:38:00,
2013-01-18 23:08:00,29.0,25.9,29.81,SW,225,0.0,3.0,88,0.00,,,-99.99,WeatherLink 5.7,2013-01-19 05:08:00,
2013-01-18 23:38:00,28.4,25.6,29.81,North,-999,0.0,1.0,89,0.00,,,-99.99,WeatherLink 5.7,2013-01-19 05:38:00,